DW0268 Weather Reports


time (UTC)temp
F
wind
direction
speed
knots
gust
knots
rain 1hr
in
rain 24hr
in
rain mn
in
humidity
%
barometer
mb
20260906131531 81 55 0.9 7.0 0.00 0.00 0.00 86 1016.6
20260906130032 80 338 1.7 4.3 0.00 0.00 0.00 88 1016.4
20260906124536 78 360 0.9 5.2 0.00 0.00 0.00 89 1016.4
20260906123034 77 351 1.7 7.0 0.00 0.00 0.00 91 1016.2
20260906121528 76 355 2.6 4.3 0.00 0.00 0.00 91 1015.9
20260906120023 76 355 0.9 3.5 0.00 0.00 0.00 91 1015.9
20260906114522 76 351 2.6 4.3 0.00 0.00 0.00 91 1015.6
20260906113020 76 355 2.6 5.2 0.00 0.00 0.00 91 1015.3
20260906111518 76 330 1.7 3.5 0.00 0.00 0.00 91 1015.2
20260906110020 77 257 0.9 2.6 0.00 0.00 0.00 91 1015.0
20260906104515 76 248 0.9 1.7 0.00 0.00 0.00 91 1015.0
20260906103035 76 246 0.0 0.0 0.00 0.00 0.00 91 1015.0
20260906101513 77 246 0.0 2.6 0.00 0.00 0.00 91 1014.9
20260906100023 77 246 0.9 1.7 0.00 0.00 0.00 90 1014.9
20260906094511 77 246 0.0 0.0 0.00 0.00 0.00 90 1014.8
20260906093010 77 246 0.0 0.0 0.00 0.00 0.00 91 1015.0
20260906091510 77 246 0.0 0.0 0.00 0.00 0.00 91 1014.9
20260906090009 77 246 0.0 0.0 0.00 0.00 0.00 91 1014.8
20260906084508 77 246 0.0 1.7 0.00 0.00 0.00 91 1014.7
20260906083006 77 246 0.9 2.6 0.00 0.00 0.00 90 1014.6
20260906081504 78 215 0.0 1.7 0.00 0.00 0.00 89 1014.5
20260906080007 78 215 0.0 1.7 0.00 0.00 0.00 89 1014.5
20260906074503 78 215 0.9 1.7 0.00 0.00 0.00 89 1014.6
20260906073101 78 215 0.9 1.7 0.00 0.00 0.00 89 1014.6
20260906071600 78 215 0.0 1.7 0.00 0.00 0.00 89 1014.7
20260906070058 78 215 0.0 3.5 0.00 0.00 0.00 88 1014.6
20260906064557 80 309 0.9 2.6 0.00 0.00 0.00 85 1014.7
20260906063052 80 334 0.0 3.5 0.00 0.00 0.00 84 1014.6
20260906061550 81 19 0.0 2.6 0.00 0.00 0.00 83 1014.5
20260906060049 81 345 0.0 1.7 0.00 0.00 0.00 83 1014.7
20260906054547 81 345 0.0 1.7 0.00 0.00 0.00 83 1014.7
20260906053047 82 344 0.9 5.2 0.00 0.00 0.00 82 1014.6
20260906051543 82 360 2.6 4.3 0.00 0.00 0.00 81 1014.7
20260906050045 82 355 1.7 3.5 0.00 0.00 0.00 81 1014.6
20260906044543 82 344 0.0 2.6 0.00 0.00 0.00 80 1014.7
20260906043039 83 344 0.0 0.9 0.00 0.00 0.00 79 1014.6
20260906041538 83 344 0.0 1.7 0.00 0.00 0.00 79 1014.5
20260906040037 83 344 0.0 0.0 0.00 0.00 0.00 80 1014.4
20260906034536 83 344 0.0 1.7 0.00 0.00 0.00 80 1014.6
20260906033036 83 344 0.0 1.7 0.00 0.00 0.00 79 1014.6
20260906031530 85 344 0.0 0.0 0.00 0.00 0.00 77 1014.5
20260906030030 85 344 0.0 0.9 0.00 0.00 0.00 75 1014.4
20260906024529 85 344 0.9 1.7 0.00 0.00 0.00 75 1014.4
20260906023028 85 344 0.0 3.5 0.00 0.00 0.00 76 1014.3
20260906021536 88 150 0.0 0.9 0.00 0.00 0.00 71 1014.1
20260906020022 87 150 0.9 2.6 0.00 0.00 0.00 73 1013.7
20260906014521 87 221 0.0 0.0 0.00 0.00 0.00 74 1013.6
20260906013032 89 221 0.9 5.2 0.00 0.00 0.00 72 1013.5
20260906011513 90 119 1.7 2.6 0.00 0.00 0.00 68 1013.2
20260906010013 91 119 0.9 1.7 0.00 0.00 0.00 66 1013.1
20260906004508 92 119 1.7 3.5 0.00 0.00 0.00 63 1013.2
20260906003010 93 113 1.7 3.5 0.00 0.00 0.00 61 1013.0
20260906001600 95 112 0.0 0.0 0.00 0.00 0.00 59 1013.2
20260906000056 96 112 0.0 1.7 0.00 0.00 0.00 56 1013.1
20260905234551 97 111 0.9 1.7 0.00 0.00 0.00 54 1013.2
20260905233048 98 111 0.0 2.6 0.00 0.00 0.00 51 1013.4
20260905231546 99 111 0.0 2.6 0.00 0.00 0.00 50 1013.5
20260905230041 99 109 1.7 3.5 0.00 0.00 0.00 49 1013.5
20260905224537 0 0.0 0.0 0.00 0.00 0.00 1013.4
20260905221556 99 132 2.6 4.3 0.00 0.00 0.00 49 1013.3
20260905220054 98 91 0.9 7.0 0.00 0.00 0.00 51 1013.3
20260905214551 98 91 0.0 7.0 0.00 0.00 0.00 52 1013.4
20260905213050 100 79 4.3 8.7 0.00 0.00 0.00 49 1013.5
20260905211548 100 80 2.6 8.7 0.00 0.00 0.00 50 1013.4
20260905210046 100 84 4.3 12.2 0.00 0.00 0.00 50 1013.5
20260905204540 101 169 1.7 7.0 0.00 0.00 0.00 49 1013.6
20260905203037 100 155 1.7 4.3 0.00 0.00 0.00 50 1013.7
20260905201535 100 113 2.6 5.2 0.00 0.00 0.00 50 1014.0
20260905200035 100 161 1.7 7.0 0.00 0.00 0.00 51 1014.3
20260905194528 98 110 2.6 7.0 0.00 0.00 0.00 53 1014.5
20260905193029 98 104 3.5 6.1 0.00 0.00 0.00 52 1014.7
20260905191530 99 44 1.7 3.5 0.00 0.00 0.00 52 1015.0
20260905190031 99 223 1.7 4.3 0.00 0.00 0.00 51 1015.2
20260905184525 98 278 1.7 3.5 0.00 0.00 0.00 52 1015.4
20260905183018 98 55 2.6 4.3 0.00 0.00 0.00 53 1015.5
20260905181515 98 245 3.5 8.7 0.00 0.00 0.00 54 1015.6
20260905180015 97 259 2.6 7.8 0.00 0.00 0.00 54 1015.6
20260905174509 97 275 2.6 10.4 0.00 0.00 0.00 54 1015.6
20260905173008 96 271 6.1 8.7 0.00 0.00 0.00 56 1015.7
20260905171505 96 321 3.5 8.7 0.00 0.00 0.00 58 1016.0
20260905170002 95 82 1.7 5.2 0.00 0.00 0.00 59 1016.2
20260905164601 95 296 1.7 7.0 0.00 0.00 0.00 61 1016.4
20260905163057 94 36 1.7 7.0 0.00 0.00 0.00 65 1016.5
20260905161553 93 326 4.3 7.0 0.00 0.00 0.00 64 1016.5
20260905160055 93 286 4.3 7.0 0.00 0.00 0.00 65 1016.5
20260905154548 92 266 3.5 6.1 0.00 0.00 0.00 68 1016.5
20260905153059 92 262 2.6 5.2 0.00 0.00 0.00 69 1016.5
20260905151537 90 315 0.9 4.3 0.00 0.00 0.00 72 1016.7
20260905150034 89 290 1.7 5.2 0.00 0.00 0.00 72 1016.7
20260905144530 88 311 1.7 5.2 0.00 0.00 0.00 73 1016.7
20260905143029 88 340 0.9 3.5 0.00 0.00 0.00 75 1016.7
20260905141526 86 330 2.6 4.3 0.00 0.00 0.00 76 1016.8
20260905140021 86 338 0.9 3.5 0.00 0.00 0.00 79 1016.5
20260905134516 84 344 1.7 3.5 0.00 0.00 0.00 81 1016.6
20260905133013 82 355 0.9 2.6 0.00 0.00 0.00 85 1016.3